Location: Cantaing
(50.1487°N, 3.1675°E)
Time: 09:51:34
(UTC+00:00)

CENTAUR R/B - Pass Details

Date: 14 January 2026
Orbit: 629 x 1551 km, 63.4° (Epoch: 11 February)

Event Time Altitude Azimuth Distance (km) Brightness Sun altitude
Rises 06:46:47 0° 201° (SSW) 3,200 5.2 -8.5°
Reaches altitude 10° 06:49:00 10° 196° (SSW) 2,375 4.6 -8.2°
Maximum altitude 06:54:18 52° 121° (ESE) 1,147 3.4 -7.4°
Drops below altitude 10° 07:00:59 10° 48° (NE) 2,985 5.4 -6.5°
Sets 07:04:04 0° 44° (NE) 4,100 6.0 -6.0°
